Simultaneous Nadir Overpasses (SNOs) Predictions

Prediction of SNOs between METOP-B and NOAA-19 Satellite Orbit:

Table of predicted SNOs for the next 14.0 days since TLE Epoch: 8/19/2023
Index Date (METOP-B) Time (METOP-B) Lat,Lon (METOP-B) SZA (METOP-B ) Date (NOAA-19) Time (NOAA-19) Lat,Lon (NOAA-19) SZA (NOAA-19 ) Distance(km) Time Diff (sec)
1 08/20/2023 21:29:14 -80.85, 70.33 110.07 08/20/2023 21:28:16 -80.86, 70.45 110.08 2.20 58
2 08/20/2023 22:19:54 80.86,-122.12 69.98 08/20/2023 22:19:12 80.86,-122.05 69.97 1.22 42
3 08/20/2023 23:10:35 -80.86, 45.18 110.02 08/20/2023 23:10:14 -80.86, 45.29 110.02 1.97 21
4 08/21/2023 00:01:16 80.85,-147.62 69.98 08/21/2023 00:01:11 80.86,-147.58 69.99 1.07 5
5 08/21/2023 00:51:55 -80.87, 20.03 109.97 08/21/2023 00:52:11 -80.87, 20.13 109.96 1.79 16
6 08/21/2023 01:42:36 80.86,-172.77 70.03 08/21/2023 01:43:08 80.87,-172.74 70.04 0.67 32
7 08/21/2023 02:33:17 -80.86, -5.47 109.97 08/21/2023 02:34:10 -80.87, -5.39 109.94 1.63 53
8 08/21/2023 03:23:57 80.87, 162.08 70.08 08/21/2023 03:25:06 80.88, 162.10 70.10 0.29 69
9 09/01/2023 09:41:18 80.84, 67.15 73.97 09/01/2023 09:40:07 80.84, 67.34 73.96 3.29 71
10 09/01/2023 10:31:59 -80.85,-125.46 106.01 09/01/2023 10:31:12 -80.84,-125.59 106.05 2.40 47
11 09/01/2023 11:22:40 80.83, 41.65 73.97 09/01/2023 11:22:06 80.84, 41.80 73.98 2.94 34
12 09/01/2023 12:13:20 -80.86,-150.62 105.96 09/01/2023 12:13:10 -80.85,-150.76 105.99 2.71 10
13 09/01/2023 13:04:01 80.84, 16.49 74.03 09/01/2023 13:04:04 80.85, 16.63 74.04 2.60 3
14 09/01/2023 13:54:42 -80.85,-176.13 105.96 09/01/2023 13:55:09 -80.85,-176.30 105.96 3.03 27
15 09/01/2023 14:45:22 80.85, -8.67 74.08 09/01/2023 14:46:02 80.86, -8.54 74.11 2.27 40



Historial Predications of SNOs between METOP-B and NOAA-19
